owner,sensor,date,latitude,longitude,vertical_datum,wind_speed,wind_to_direction,wind_speed_of_gust,qcFlag 
DISL,ioos:station:DISL:CATA:1,2018-10-01T00:00:00Z,30.3085,-88.1395,0.0,4.1,4.0,99.0,'11111222,11111222,11144222' 
DISL,ioos:station:DISL:CATA:1,2018-10-01T00:30:00Z,30.3085,-88.1395,0.0,4.3,356.0,99.0,'11111222,11111222,11144222' 
DISL,ioos:station:DISL:CATA:1,2018-10-01T00:40:00Z,30.3085,-88.1395,0.0,4.78,12.78,-9999.0,'1111122,1111122,1111122' 
DISL,ioos:station:DISL:CATA:1,2018-10-01T01:00:00Z,30.3085,-88.1395,0.0,6.8,25.0,99.0,'11111222,11111222,11144222' 
DISL,ioos:station:DISL:CATA:1,2018-10-01T01:30:00Z,30.3085,-88.1395,0.0,7.2,19.0,99.0,'11111222,11111222,11144222' 
DISL,ioos:station:DISL:CATA:1,2018-10-01T01:40:00Z,30.3085,-88.1395,0.0,6.21,8.62,-9999.0,'1111122,1111122,1111122' 
DISL,ioos:station:DISL:CATA:1,2018-10-01T02:00:00Z,30.3085,-88.1395,0.0,6.7,8.0,99.0,'11111222,11111222,11144222' 
DISL,ioos:station:DISL:CATA:1,2018-10-01T02:30:00Z,30.3085,-88.1395,0.0,9.7,23.0,99.0,'11111222,11111222,11144222' 
DISL,ioos:station:DISL:CATA:1,2018-10-01T02:40:00Z,30.3085,-88.1395,0.0,10.31,30.76,-9999.0,'1111122,1111122,1111122' 
DISL,ioos:station:DISL:CATA:1,2018-10-01T03:00:00Z,30.3085,-88.1395,0.0,8.0,30.0,99.0,'11111222,11111222,11144222' 
DISL,ioos:station:DISL:CATA:1,2018-10-01T03:30:00Z,30.3085,-88.1395,0.0,5.9,36.0,99.0,'11111222,11111222,11144222' 
DISL,ioos:station:DISL:CATA:1,2018-10-01T03:40:00Z,30.3085,-88.1395,0.0,5.58,39.18,-9999.0,'1111122,1111122,1111122' 
DISL,ioos:station:DISL:CATA:1,2018-10-01T04:00:00Z,30.3085,-88.1395,0.0,4.8,52.0,99.0,'11111222,11111222,11144222' 
DISL,ioos:station:DISL:CATA:1,2018-10-01T04:30:00Z,30.3085,-88.1395,0.0,4.4,40.0,99.0,'11111222,11111222,11144222' 
DISL,ioos:station:DISL:CATA:1,2018-10-01T04:40:00Z,30.3085,-88.1395,0.0,4.29,41.22,-9999.0,'1111122,1111122,1111122' 
DISL,ioos:station:DISL:CATA:1,2018-10-01T05:00:00Z,30.3085,-88.1395,0.0,4.5,38.0,99.0,'11111222,11111222,11144222' 
DISL,ioos:station:DISL:CATA:1,2018-10-01T05:30:00Z,30.3085,-88.1395,0.0,4.4,40.0,99.0,'11111222,11111222,11144222' 
DISL,ioos:station:DISL:CATA:1,2018-10-01T05:40:00Z,30.3085,-88.1395,0.0,4.37,47.18,-9999.0,'1111122,1111122,1111122' 
DISL,ioos:station:DISL:CATA:1,2018-10-01T06:30:00Z,30.3085,-88.1395,0.0,5.8,66.0,99.0,'11111222,11111222,11144222' 
DISL,ioos:station:DISL:CATA:1,2018-10-01T06:40:00Z,30.3085,-88.1395,0.0,5.92,62.89,-9999.0,'1111122,1111122,1111122' 
DISL,ioos:station:DISL:CATA:1,2018-10-01T07:00:00Z,30.3085,-88.1395,0.0,6.2,65.0,99.0,'11111222,11111222,11144222' 
DISL,ioos:station:DISL:CATA:1,2018-10-01T07:30:00Z,30.3085,-88.1395,0.0,6.5,61.0,99.0,'11111222,11111222,11144222' 
DISL,ioos:station:DISL:CATA:1,2018-10-01T07:40:00Z,30.3085,-88.1395,0.0,6.5,60.98,-9999.0,'1111122,1111122,1111122' 
DISL,ioos:station:DISL:CATA:1,2018-10-01T08:00:00Z,30.3085,-88.1395,0.0,6.7,68.0,99.0,'11111222,11111222,11144222' 
DISL,ioos:station:DISL:CATA:1,2018-10-01T08:30:00Z,30.3085,-88.1395,0.0,7.4,68.0,99.0,'11111222,11111222,11144222' 
DISL,ioos:station:DISL:CATA:1,2018-10-01T08:40:00Z,30.3085,-88.1395,0.0,6.57,71.76,-9999.0,'1111122,1111122,1111122' 
DISL,ioos:station:DISL:CATA:1,2018-10-01T09:00:00Z,30.3085,-88.1395,0.0,6.8,77.0,99.0,'11111222,11111222,11144222' 
DISL,ioos:station:DISL:CATA:1,2018-10-01T09:30:00Z,30.3085,-88.1395,0.0,6.3,78.0,99.0,'11111222,11111222,11144222' 
DISL,ioos:station:DISL:CATA:1,2018-10-01T09:40:00Z,30.3085,-88.1395,0.0,6.4,75.63,-9999.0,'1111122,1111122,1111122' 
DISL,ioos:station:DISL:CATA:1,2018-10-01T10:00:00Z,30.3085,-88.1395,0.0,5.9,75.0,99.0,'11111222,11111222,11144222' 
DISL,ioos:station:DISL:CATA:1,2018-10-01T10:30:00Z,30.3085,-88.1395,0.0,5.4,76.0,99.0,'11111222,11111222,11144222' 
DISL,ioos:station:DISL:CATA:1,2018-10-01T10:40:00Z,30.3085,-88.1395,0.0,5.21,81.1,-9999.0,'1111122,1111122,1111122' 
DISL,ioos:station:DISL:CATA:1,2018-10-01T11:00:00Z,30.3085,-88.1395,0.0,5.3,74.0,99.0,'11111222,11111222,11144222' 
DISL,ioos:station:DISL:CATA:1,2018-10-01T11:30:00Z,30.3085,-88.1395,0.0,4.7,67.0,99.0,'11111222,11111222,11144222' 
DISL,ioos:station:DISL:CATA:1,2018-10-01T11:40:00Z,30.3085,-88.1395,0.0,5.06,60.24,-9999.0,'1111122,1111122,1111122' 
DISL,ioos:station:DISL:CATA:1,2018-10-01T12:00:00Z,30.3085,-88.1395,0.0,4.9,61.0,99.0,'11111222,11111222,11144222' 
DISL,ioos:station:DISL:CATA:1,2018-10-01T12:30:00Z,30.3085,-88.1395,0.0,4.7,48.0,99.0,'11111222,11111222,11144222' 
DISL,ioos:station:DISL:CATA:1,2018-10-01T12:40:00Z,30.3085,-88.1395,0.0,4.85,48.12,-9999.0,'1111122,1111122,1111122' 
DISL,ioos:station:DISL:CATA:1,2018-10-01T13:00:00Z,30.3085,-88.1395,0.0,5.1,41.0,99.0,'11111222,11111222,11144222' 
DISL,ioos:station:DISL:CATA:1,2018-10-01T13:30:00Z,30.3085,-88.1395,0.0,5.5,38.0,99.0,'11111222,11111222,11144222' 
DISL,ioos:station:DISL:CATA:1,2018-10-01T13:40:00Z,30.3085,-88.1395,0.0,4.98,45.04,-9999.0,'1111122,1111122,1111122' 
DISL,ioos:station:DISL:CATA:1,2018-10-01T14:00:00Z,30.3085,-88.1395,0.0,5.1,51.0,99.0,'11111222,11111222,11144222' 
DISL,ioos:station:DISL:CATA:1,2018-10-01T14:30:00Z,30.3085,-88.1395,0.0,5.1,45.0,99.0,'11111222,11111222,11144222' 
DISL,ioos:station:DISL:CATA:1,2018-10-01T14:40:00Z,30.3085,-88.1395,0.0,5.04,47.25,-9999.0,'1111122,1111122,1111122' 
DISL,ioos:station:DISL:CATA:1,2018-10-01T15:00:00Z,30.3085,-88.1395,0.0,5.3,56.0,99.0,'11111222,11111222,11144222' 
DISL,ioos:station:DISL:CATA:1,2018-10-01T15:30:00Z,30.3085,-88.1395,0.0,5.5,61.0,99.0,'11111222,11111222,11144222' 
DISL,ioos:station:DISL:CATA:1,2018-10-01T15:40:00Z,30.3085,-88.1395,0.0,5.77,62.68,-9999.0,'1111122,1111122,1111122' 
DISL,ioos:station:DISL:CATA:1,2018-10-01T16:00:00Z,30.3085,-88.1395,0.0,5.3,72.0,99.0,'11111222,11111222,11144222' 
DISL,ioos:station:DISL:CATA:1,2018-10-01T16:30:00Z,30.3085,-88.1395,0.0,5.1,74.0,99.0,'11111222,11111222,11144222' 
DISL,ioos:station:DISL:CATA:1,2018-10-01T16:40:00Z,30.3085,-88.1395,0.0,4.61,71.15,-9999.0,'1111122,1111122,1111122' 
DISL,ioos:station:DISL:CATA:1,2018-10-01T17:00:00Z,30.3085,-88.1395,0.0,4.6,82.0,99.0,'11111222,11111222,11144222' 
DISL,ioos:station:DISL:CATA:1,2018-10-01T17:30:00Z,30.3085,-88.1395,0.0,4.1,82.0,99.0,'11111222,11111222,11144222' 
DISL,ioos:station:DISL:CATA:1,2018-10-01T17:40:00Z,30.3085,-88.1395,0.0,4.6,87.3,-9999.0,'1111122,1111122,1111122' 
DISL,ioos:station:DISL:CATA:1,2018-10-01T18:00:00Z,30.3085,-88.1395,0.0,4.3,89.0,99.0,'11111222,11111222,11144222' 
DISL,ioos:station:DISL:CATA:1,2018-10-01T18:30:00Z,30.3085,-88.1395,0.0,4.4,120.0,99.0,'11111222,11111222,11144222' 
DISL,ioos:station:DISL:CATA:1,2018-10-01T18:40:00Z,30.3085,-88.1395,0.0,3.75,106.0,-9999.0,'1111122,1111122,1111122' 
DISL,ioos:station:DISL:CATA:1,2018-10-01T19:00:00Z,30.3085,-88.1395,0.0,3.4,103.0,99.0,'11111222,11111222,11144222' 
DISL,ioos:station:DISL:CATA:1,2018-10-01T19:30:00Z,30.3085,-88.1395,0.0,3.7,80.0,99.0,'11111222,11111222,11144222' 
DISL,ioos:station:DISL:CATA:1,2018-10-01T19:40:00Z,30.3085,-88.1395,0.0,5.17,42.29,-9999.0,'1111122,1111122,1111122' 
DISL,ioos:station:DISL:CATA:1,2018-10-01T20:00:00Z,30.3085,-88.1395,0.0,4.6,34.0,99.0,'11111222,11111222,11144222' 
DISL,ioos:station:DISL:CATA:1,2018-10-01T20:30:00Z,30.3085,-88.1395,0.0,4.9,49.0,99.0,'11111222,11111222,11144222' 
DISL,ioos:station:DISL:CATA:1,2018-10-01T20:40:00Z,30.3085,-88.1395,0.0,3.33,58.29,-9999.0,'1111122,1111122,1111122' 
DISL,ioos:station:DISL:CATA:1,2018-10-01T21:00:00Z,30.3085,-88.1395,0.0,3.1,22.0,99.0,'11111222,11111222,11144222' 
DISL,ioos:station:DISL:CATA:1,2018-10-01T21:30:00Z,30.3085,-88.1395,0.0,2.1,52.0,99.0,'11111222,11111222,11144222' 
DISL,ioos:station:DISL:CATA:1,2018-10-01T21:40:00Z,30.3085,-88.1395,0.0,1.86,52.79,-9999.0,'1111122,1111122,1111122' 
DISL,ioos:station:DISL:CATA:1,2018-10-01T22:00:00Z,30.3085,-88.1395,0.0,1.6,72.0,99.0,'11111222,11111222,11144222' 
DISL,ioos:station:DISL:CATA:1,2018-10-01T22:30:00Z,30.3085,-88.1395,0.0,2.5,104.0,99.0,'11111222,11111222,11144222' 
DISL,ioos:station:DISL:CATA:1,2018-10-01T22:40:00Z,30.3085,-88.1395,0.0,2.56,110.0,-9999.0,'1111122,1111122,1111122' 
DISL,ioos:station:DISL:CATA:1,2018-10-01T23:00:00Z,30.3085,-88.1395,0.0,3.5,118.0,99.0,'11111222,11111222,11144222' 
DISL,ioos:station:DISL:CATA:1,2018-10-01T23:30:00Z,30.3085,-88.1395,0.0,3.7,107.0,99.0,'11111222,11111222,11144222' 
DISL,ioos:station:DISL:CATA:1,2018-10-01T23:40:00Z,30.3085,-88.1395,0.0,4.16,83.4,-9999.0,'1111122,1111122,1111122' 
DISL,ioos:station:DISL:CATA:1,2018-10-02T00:00:00Z,30.3085,-88.1395,0.0,4.0,56.0,99.0,'11111222,11111222,11144222' 
DISL,ioos:station:DISL:CATA:1,2018-10-02T00:30:00Z,30.3085,-88.1395,0.0,2.9,53.0,99.0,'11111222,11111222,11144222' 
DISL,ioos:station:DISL:CATA:1,2018-10-02T00:40:00Z,30.3085,-88.1395,0.0,3.25,60.58,-9999.0,'1111122,1111122,1111122' 
DISL,ioos:station:DISL:CATA:1,2018-10-02T01:00:00Z,30.3085,-88.1395,0.0,2.7,65.0,99.0,'11111222,11111222,11144222' 
DISL,ioos:station:DISL:CATA:1,2018-10-02T01:30:00Z,30.3085,-88.1395,0.0,1.9,68.0,99.0,'11111222,11111222,11144222' 
DISL,ioos:station:DISL:CATA:1,2018-10-02T01:40:00Z,30.3085,-88.1395,0.0,1.6,26.61,-9999.0,'1111122,1111122,1111122' 
DISL,ioos:station:DISL:CATA:1,2018-10-02T02:00:00Z,30.3085,-88.1395,0.0,1.7,48.0,99.0,'11111222,11111222,11144222' 
DISL,ioos:station:DISL:CATA:1,2018-10-02T02:30:00Z,30.3085,-88.1395,0.0,2.3,33.0,99.0,'11111222,11111222,11144222' 
DISL,ioos:station:DISL:CATA:1,2018-10-02T02:40:00Z,30.3085,-88.1395,0.0,1.95,19.55,-9999.0,'1111122,1111122,1111122' 
DISL,ioos:station:DISL:CATA:1,2018-10-02T03:00:00Z,30.3085,-88.1395,0.0,2.4,354.0,99.0,'11111222,11111222,11144222' 
DISL,ioos:station:DISL:CATA:1,2018-10-02T03:30:00Z,30.3085,-88.1395,0.0,2.1,13.0,99.0,'11111222,11111222,11144222' 
DISL,ioos:station:DISL:CATA:1,2018-10-02T03:40:00Z,30.3085,-88.1395,0.0,2.38,4.657,-9999.0,'1111122,1111122,1111122' 
DISL,ioos:station:DISL:CATA:1,2018-10-02T04:00:00Z,30.3085,-88.1395,0.0,2.6,358.0,99.0,'11111222,11111222,11144222' 
DISL,ioos:station:DISL:CATA:1,2018-10-02T04:30:00Z,30.3085,-88.1395,0.0,2.8,357.0,99.0,'11111222,11111222,11144222' 
DISL,ioos:station:DISL:CATA:1,2018-10-02T04:40:00Z,30.3085,-88.1395,0.0,2.91,354.6,-9999.0,'1111122,1111122,1111122' 
DISL,ioos:station:DISL:CATA:1,2018-10-02T05:00:00Z,30.3085,-88.1395,0.0,3.2,355.0,99.0,'11111222,11111222,11144222' 
DISL,ioos:station:DISL:CATA:1,2018-10-02T05:30:00Z,30.3085,-88.1395,0.0,2.9,9.0,99.0,'11111222,11111222,11144222' 
DISL,ioos:station:DISL:CATA:1,2018-10-02T05:40:00Z,30.3085,-88.1395,0.0,3.05,11.81,-9999.0,'1111122,1111122,1111122' 
DISL,ioos:station:DISL:CATA:1,2018-10-02T06:30:00Z,30.3085,-88.1395,0.0,4.5,35.0,99.0,'11111222,11111222,11144222' 
DISL,ioos:station:DISL:CATA:1,2018-10-02T06:40:00Z,30.3085,-88.1395,0.0,4.24,39.58,-9999.0,'1111122,1111122,1111122' 
DISL,ioos:station:DISL:CATA:1,2018-10-02T07:00:00Z,30.3085,-88.1395,0.0,3.7,33.0,99.0,'11111222,11111222,11144222' 
DISL,ioos:station:DISL:CATA:1,2018-10-02T07:30:00Z,30.3085,-88.1395,0.0,5.0,53.0,99.0,'11111222,11111222,11144222' 
DISL,ioos:station:DISL:CATA:1,2018-10-02T07:40:00Z,30.3085,-88.1395,0.0,4.83,54.9,-9999.0,'1111122,1111122,1111122' 
DISL,ioos:station:DISL:CATA:1,2018-10-02T08:00:00Z,30.3085,-88.1395,0.0,5.1,63.0,99.0,'11111222,11111222,11144222' 
DISL,ioos:station:DISL:CATA:1,2018-10-02T08:30:00Z,30.3085,-88.1395,0.0,6.0,64.0,99.0,'11111222,11111222,11144222' 
DISL,ioos:station:DISL:CATA:1,2018-10-02T08:40:00Z,30.3085,-88.1395,0.0,5.91,67.62,-9999.0,'1111122,1111122,1111122' 
DISL,ioos:station:DISL:CATA:1,2018-10-02T09:00:00Z,30.3085,-88.1395,0.0,5.8,71.0,99.0,'11111222,11111222,11144222' 
DISL,ioos:station:DISL:CATA:1,2018-10-02T09:30:00Z,30.3085,-88.1395,0.0,5.4,69.0,99.0,'11111222,11111222,11144222' 
DISL,ioos:station:DISL:CATA:1,2018-10-02T09:40:00Z,30.3085,-88.1395,0.0,5.42,68.73,-9999.0,'1111122,1111122,1111122' 
DISL,ioos:station:DISL:CATA:1,2018-10-02T10:00:00Z,30.3085,-88.1395,0.0,5.1,70.0,99.0,'11111222,11111222,11144222' 
DISL,ioos:station:DISL:CATA:1,2018-10-02T10:30:00Z,30.3085,-88.1395,0.0,5.3,72.0,99.0,'11111222,11111222,11144222' 
DISL,ioos:station:DISL:CATA:1,2018-10-02T10:40:00Z,30.3085,-88.1395,0.0,5.96,71.93,-9999.0,'1111122,1111122,1111122' 
DISL,ioos:station:DISL:CATA:1,2018-10-02T11:00:00Z,30.3085,-88.1395,0.0,6.1,68.0,99.0,'11111222,11111222,11144222' 
DISL,ioos:station:DISL:CATA:1,2018-10-02T11:30:00Z,30.3085,-88.1395,0.0,5.9,66.0,99.0,'11111222,11111222,11144222' 
DISL,ioos:station:DISL:CATA:1,2018-10-02T11:40:00Z,30.3085,-88.1395,0.0,6.03,72.29,-9999.0,'1111122,1111122,1111122' 
DISL,ioos:station:DISL:CATA:1,2018-10-02T12:00:00Z,30.3085,-88.1395,0.0,5.9,74.0,99.0,'11111222,11111222,11144222' 
DISL,ioos:station:DISL:CATA:1,2018-10-02T12:30:00Z,30.3085,-88.1395,0.0,5.1,61.0,99.0,'11111222,11111222,11144222' 
DISL,ioos:station:DISL:CATA:1,2018-10-02T12:40:00Z,30.3085,-88.1395,0.0,5.29,54.55,-9999.0,'1111122,1111122,1111122' 
DISL,ioos:station:DISL:CATA:1,2018-10-02T13:00:00Z,30.3085,-88.1395,0.0,4.7,44.0,99.0,'11111222,11111222,11144222' 
DISL,ioos:station:DISL:CATA:1,2018-10-02T13:30:00Z,30.3085,-88.1395,0.0,4.9,39.0,99.0,'11111222,11111222,11144222' 
DISL,ioos:station:DISL:CATA:1,2018-10-02T13:40:00Z,30.3085,-88.1395,0.0,4.58,35.54,-9999.0,'1111122,1111122,1111122' 
DISL,ioos:station:DISL:CATA:1,2018-10-02T14:00:00Z,30.3085,-88.1395,0.0,5.3,30.0,99.0,'11111222,11111222,11144222' 
DISL,ioos:station:DISL:CATA:1,2018-10-02T14:30:00Z,30.3085,-88.1395,0.0,5.0,35.0,99.0,'11111222,11111222,11144222' 
DISL,ioos:station:DISL:CATA:1,2018-10-02T14:40:00Z,30.3085,-88.1395,0.0,4.84,33.72,-9999.0,'1111122,1111122,1111122' 
DISL,ioos:station:DISL:CATA:1,2018-10-02T15:00:00Z,30.3085,-88.1395,0.0,4.7,36.0,99.0,'11111222,11111222,11144222' 
DISL,ioos:station:DISL:CATA:1,2018-10-02T15:30:00Z,30.3085,-88.1395,0.0,4.8,28.0,99.0,'11111222,11111222,11144222' 
DISL,ioos:station:DISL:CATA:1,2018-10-02T15:40:00Z,30.3085,-88.1395,0.0,4.49,31.59,-9999.0,'1111122,1111122,1111122' 
DISL,ioos:station:DISL:CATA:1,2018-10-02T16:00:00Z,30.3085,-88.1395,0.0,4.2,33.0,99.0,'11111222,11111222,11144222' 
DISL,ioos:station:DISL:CATA:1,2018-10-02T16:30:00Z,30.3085,-88.1395,0.0,3.8,44.0,99.0,'11111222,11111222,11144222' 
DISL,ioos:station:DISL:CATA:1,2018-10-02T16:40:00Z,30.3085,-88.1395,0.0,3.84,41.71,-9999.0,'1111122,1111122,1111122' 
DISL,ioos:station:DISL:CATA:1,2018-10-02T17:00:00Z,30.3085,-88.1395,0.0,3.5,55.0,99.0,'11111222,11111222,11144222' 
DISL,ioos:station:DISL:CATA:1,2018-10-02T17:30:00Z,30.3085,-88.1395,0.0,2.6,55.0,99.0,'11111222,11111222,11144222' 
DISL,ioos:station:DISL:CATA:1,2018-10-02T17:40:00Z,30.3085,-88.1395,0.0,2.4,54.4,-9999.0,'1111122,1111122,1111122' 
DISL,ioos:station:DISL:CATA:1,2018-10-02T18:00:00Z,30.3085,-88.1395,0.0,1.9,57.0,99.0,'11111222,11111222,11144222' 
DISL,ioos:station:DISL:CATA:1,2018-10-02T18:30:00Z,30.3085,-88.1395,0.0,1.6,49.0,99.0,'11111222,11111222,11144222' 
DISL,ioos:station:DISL:CATA:1,2018-10-02T18:40:00Z,30.3085,-88.1395,0.0,1.54,66.04,-9999.0,'1111122,1111122,1111122' 
DISL,ioos:station:DISL:CATA:1,2018-10-02T19:00:00Z,30.3085,-88.1395,0.0,1.4,76.0,99.0,'11111222,11111222,11144222' 
DISL,ioos:station:DISL:CATA:1,2018-10-02T19:30:00Z,30.3085,-88.1395,0.0,1.6,109.0,99.0,'11111222,11111222,11144222' 
DISL,ioos:station:DISL:CATA:1,2018-10-02T19:40:00Z,30.3085,-88.1395,0.0,1.43,134.5,-9999.0,'1111122,1111122,1111122' 
DISL,ioos:station:DISL:CATA:1,2018-10-02T20:00:00Z,30.3085,-88.1395,0.0,1.0,118.0,99.0,'11111222,11111222,11144222' 
DISL,ioos:station:DISL:CATA:1,2018-10-02T20:30:00Z,30.3085,-88.1395,0.0,1.7,119.0,99.0,'11111222,11111222,11144222' 
DISL,ioos:station:DISL:CATA:1,2018-10-02T20:40:00Z,30.3085,-88.1395,0.0,2.63,110.8,-9999.0,'1111122,1111122,1111122' 
DISL,ioos:station:DISL:CATA:1,2018-10-02T21:00:00Z,30.3085,-88.1395,0.0,3.1,116.0,99.0,'11111222,11111222,11144222' 
DISL,ioos:station:DISL:CATA:1,2018-10-02T21:30:00Z,30.3085,-88.1395,0.0,3.0,115.0,99.0,'11111222,11111222,11144222' 
DISL,ioos:station:DISL:CATA:1,2018-10-02T21:40:00Z,30.3085,-88.1395,0.0,3.07,118.9,-9999.0,'1111122,1111122,1111122' 
DISL,ioos:station:DISL:CATA:1,2018-10-02T22:00:00Z,30.3085,-88.1395,0.0,2.9,124.0,99.0,'11111222,11111222,11144222' 
DISL,ioos:station:DISL:CATA:1,2018-10-02T22:30:00Z,30.3085,-88.1395,0.0,3.4,126.0,99.0,'11111222,11111222,11144222' 
DISL,ioos:station:DISL:CATA:1,2018-10-02T22:40:00Z,30.3085,-88.1395,0.0,3.3,124.4,-9999.0,'1111122,1111122,1111122' 
DISL,ioos:station:DISL:CATA:1,2018-10-02T23:00:00Z,30.3085,-88.1395,0.0,3.8,125.0,99.0,'11111222,11111222,11144222' 
DISL,ioos:station:DISL:CATA:1,2018-10-02T23:30:00Z,30.3085,-88.1395,0.0,3.8,123.0,99.0,'11111222,11111222,11144222' 
DISL,ioos:station:DISL:CATA:1,2018-10-02T23:40:00Z,30.3085,-88.1395,0.0,3.6,119.1,-9999.0,'1111122,1111122,1111122' 
DISL,ioos:station:DISL:CATA:1,2018-10-03T00:00:00Z,30.3085,-88.1395,0.0,3.9,106.0,99.0,'11111222,11111222,11144222' 
DISL,ioos:station:DISL:CATA:1,2018-10-03T00:30:00Z,30.3085,-88.1395,0.0,3.6,114.0,99.0,'11111222,11111222,11144222' 
DISL,ioos:station:DISL:CATA:1,2018-10-03T00:40:00Z,30.3085,-88.1395,0.0,3.19,107.8,-9999.0,'1111122,1111122,1111122' 
DISL,ioos:station:DISL:CATA:1,2018-10-03T01:00:00Z,30.3085,-88.1395,0.0,3.1,102.0,99.0,'11111222,11111222,11144222' 
DISL,ioos:station:DISL:CATA:1,2018-10-03T01:30:00Z,30.3085,-88.1395,0.0,4.2,104.0,99.0,'11111222,11111222,11144222' 
DISL,ioos:station:DISL:CATA:1,2018-10-03T01:40:00Z,30.3085,-88.1395,0.0,4.01,107.7,-9999.0,'1111122,1111122,1111122' 
DISL,ioos:station:DISL:CATA:1,2018-10-03T02:00:00Z,30.3085,-88.1395,0.0,3.4,111.0,99.0,'11111222,11111222,11144222' 
DISL,ioos:station:DISL:CATA:1,2018-10-03T02:30:00Z,30.3085,-88.1395,0.0,3.1,113.0,99.0,'11111222,11111222,11144222' 
DISL,ioos:station:DISL:CATA:1,2018-10-03T02:40:00Z,30.3085,-88.1395,0.0,3.36,114.5,-9999.0,'1111122,1111122,1111122' 
DISL,ioos:station:DISL:CATA:1,2018-10-03T03:00:00Z,30.3085,-88.1395,0.0,2.9,105.0,99.0,'11111222,11111222,11144222' 
DISL,ioos:station:DISL:CATA:1,2018-10-03T03:30:00Z,30.3085,-88.1395,0.0,2.4,97.0,99.0,'11111222,11111222,11144222' 
DISL,ioos:station:DISL:CATA:1,2018-10-03T03:40:00Z,30.3085,-88.1395,0.0,2.24,88.1,-9999.0,'1111122,1111122,1111122' 
DISL,ioos:station:DISL:CATA:1,2018-10-03T04:00:00Z,30.3085,-88.1395,0.0,2.5,94.0,99.0,'11111222,11111222,11144222' 
DISL,ioos:station:DISL:CATA:1,2018-10-03T04:30:00Z,30.3085,-88.1395,0.0,2.7,104.0,99.0,'11111222,11111222,11144222' 
DISL,ioos:station:DISL:CATA:1,2018-10-03T04:40:00Z,30.3085,-88.1395,0.0,2.41,95.1,-9999.0,'1111122,1111122,1111122' 
DISL,ioos:station:DISL:CATA:1,2018-10-03T05:00:00Z,30.3085,-88.1395,0.0,2.3,72.0,99.0,'11111222,11111222,11144222' 
DISL,ioos:station:DISL:CATA:1,2018-10-03T05:30:00Z,30.3085,-88.1395,0.0,2.3,66.0,99.0,'11111222,11111222,11144222' 
DISL,ioos:station:DISL:CATA:1,2018-10-03T05:40:00Z,30.3085,-88.1395,0.0,2.1,68.74,-9999.0,'1111122,1111122,1111122' 
DISL,ioos:station:DISL:CATA:1,2018-10-03T06:30:00Z,30.3085,-88.1395,0.0,2.6,72.0,99.0,'11111222,11111222,11144222' 
DISL,ioos:station:DISL:CATA:1,2018-10-03T06:40:00Z,30.3085,-88.1395,0.0,2.24,69.13,-9999.0,'1111122,1111122,1111122' 
DISL,ioos:station:DISL:CATA:1,2018-10-03T07:00:00Z,30.3085,-88.1395,0.0,2.4,68.0,99.0,'11111222,11111222,11144222' 
DISL,ioos:station:DISL:CATA:1,2018-10-03T07:30:00Z,30.3085,-88.1395,0.0,2.6,52.0,99.0,'11111222,11111222,11144222' 
DISL,ioos:station:DISL:CATA:1,2018-10-03T07:40:00Z,30.3085,-88.1395,0.0,2.62,53.43,-9999.0,'1111122,1111122,1111122' 
DISL,ioos:station:DISL:CATA:1,2018-10-03T08:00:00Z,30.3085,-88.1395,0.0,2.7,41.0,99.0,'11111222,11111222,11144222' 
DISL,ioos:station:DISL:CATA:1,2018-10-03T08:30:00Z,30.3085,-88.1395,0.0,2.8,50.0,99.0,'11111222,11111222,11144222' 
DISL,ioos:station:DISL:CATA:1,2018-10-03T08:40:00Z,30.3085,-88.1395,0.0,2.68,48.22,-9999.0,'1111122,1111122,1111122' 
DISL,ioos:station:DISL:CATA:1,2018-10-03T09:00:00Z,30.3085,-88.1395,0.0,3.0,59.0,99.0,'11111222,11111222,11144222' 
DISL,ioos:station:DISL:CATA:1,2018-10-03T09:30:00Z,30.3085,-88.1395,0.0,3.4,40.0,99.0,'11111222,11111222,11144222' 
DISL,ioos:station:DISL:CATA:1,2018-10-03T09:40:00Z,30.3085,-88.1395,0.0,3.1,37.66,-9999.0,'1111122,1111122,1111122' 
DISL,ioos:station:DISL:CATA:1,2018-10-03T10:00:00Z,30.3085,-88.1395,0.0,2.9,34.0,99.0,'11111222,11111222,11144222' 
DISL,ioos:station:DISL:CATA:1,2018-10-03T10:30:00Z,30.3085,-88.1395,0.0,3.2,48.0,99.0,'11111222,11111222,11144222' 
DISL,ioos:station:DISL:CATA:1,2018-10-03T10:40:00Z,30.3085,-88.1395,0.0,3.25,48.82,-9999.0,'1111122,1111122,1111122' 
DISL,ioos:station:DISL:CATA:1,2018-10-03T11:00:00Z,30.3085,-88.1395,0.0,3.9,49.0,99.0,'11111222,11111222,11144222' 
DISL,ioos:station:DISL:CATA:1,2018-10-03T11:30:00Z,30.3085,-88.1395,0.0,3.5,50.0,99.0,'11111222,11111222,11144222' 
DISL,ioos:station:DISL:CATA:1,2018-10-03T11:40:00Z,30.3085,-88.1395,0.0,3.65,51.92,-9999.0,'1111122,1111122,1111122' 
DISL,ioos:station:DISL:CATA:1,2018-10-03T12:00:00Z,30.3085,-88.1395,0.0,3.6,44.0,99.0,'11111222,11111222,11144222' 
DISL,ioos:station:DISL:CATA:1,2018-10-03T12:30:00Z,30.3085,-88.1395,0.0,4.0,47.0,99.0,'11111222,11111222,11144222' 
DISL,ioos:station:DISL:CATA:1,2018-10-03T12:40:00Z,30.3085,-88.1395,0.0,3.76,39.01,-9999.0,'1111122,1111122,1111122' 
DISL,ioos:station:DISL:CATA:1,2018-10-03T13:00:00Z,30.3085,-88.1395,0.0,3.9,41.0,99.0,'11111222,11111222,11144222' 
DISL,ioos:station:DISL:CATA:1,2018-10-03T13:30:00Z,30.3085,-88.1395,0.0,4.5,56.0,99.0,'11111222,11111222,11144222' 
DISL,ioos:station:DISL:CATA:1,2018-10-03T13:40:00Z,30.3085,-88.1395,0.0,4.43,61.17,-9999.0,'1111122,1111122,1111122' 
DISL,ioos:station:DISL:CATA:1,2018-10-03T14:00:00Z,30.3085,-88.1395,0.0,4.4,58.0,99.0,'11111222,11111222,11144222' 
DISL,ioos:station:DISL:CATA:1,2018-10-03T14:30:00Z,30.3085,-88.1395,0.0,4.3,62.0,99.0,'11111222,11111222,11144222' 
DISL,ioos:station:DISL:CATA:1,2018-10-03T14:40:00Z,30.3085,-88.1395,0.0,4.52,63.38,-9999.0,'1111122,1111122,1111122' 
DISL,ioos:station:DISL:CATA:1,2018-10-03T15:00:00Z,30.3085,-88.1395,0.0,4.8,59.0,99.0,'11111222,11111222,11144222' 
DISL,ioos:station:DISL:CATA:1,2018-10-03T15:30:00Z,30.3085,-88.1395,0.0,4.5,60.0,99.0,'11111222,11111222,11144222' 
DISL,ioos:station:DISL:CATA:1,2018-10-03T15:40:00Z,30.3085,-88.1395,0.0,4.47,56.93,-9999.0,'1111122,1111122,1111122' 
DISL,ioos:station:DISL:CATA:1,2018-10-03T16:00:00Z,30.3085,-88.1395,0.0,4.0,65.0,99.0,'11111222,11111222,11144222' 
DISL,ioos:station:DISL:CATA:1,2018-10-03T16:30:00Z,30.3085,-88.1395,0.0,3.8,70.0,99.0,'11111222,11111222,11144222' 
DISL,ioos:station:DISL:CATA:1,2018-10-03T16:40:00Z,30.3085,-88.1395,0.0,3.78,70.03,-9999.0,'1111122,1111122,1111122' 
DISL,ioos:station:DISL:CATA:1,2018-10-03T17:00:00Z,30.3085,-88.1395,0.0,4.2,72.0,99.0,'11111222,11111222,11144222' 
DISL,ioos:station:DISL:CATA:1,2018-10-03T17:30:00Z,30.3085,-88.1395,0.0,3.5,71.0,99.0,'11111222,11111222,11144222' 
DISL,ioos:station:DISL:CATA:1,2018-10-03T17:40:00Z,30.3085,-88.1395,0.0,3.45,75.66,-9999.0,'1111122,1111122,1111122' 
DISL,ioos:station:DISL:CATA:1,2018-10-03T18:00:00Z,30.3085,-88.1395,0.0,3.9,84.0,99.0,'11111222,11111222,11144222' 
DISL,ioos:station:DISL:CATA:1,2018-10-03T18:30:00Z,30.3085,-88.1395,0.0,5.1,104.0,99.0,'11111222,11111222,11144222' 
DISL,ioos:station:DISL:CATA:1,2018-10-03T18:40:00Z,30.3085,-88.1395,0.0,5.75,113.7,-9999.0,'1111122,1111122,1111122' 
DISL,ioos:station:DISL:CATA:1,2018-10-03T19:00:00Z,30.3085,-88.1395,0.0,5.9,116.0,99.0,'11111222,11111222,11144222' 
DISL,ioos:station:DISL:CATA:1,2018-10-03T19:30:00Z,30.3085,-88.1395,0.0,5.6,113.0,99.0,'11111222,11111222,11144222' 
DISL,ioos:station:DISL:CATA:1,2018-10-03T19:40:00Z,30.3085,-88.1395,0.0,5.89,114.1,-9999.0,'1111122,1111122,1111122' 
DISL,ioos:station:DISL:CATA:1,2018-10-03T20:00:00Z,30.3085,-88.1395,0.0,5.6,115.0,99.0,'11111222,11111222,11144222' 
DISL,ioos:station:DISL:CATA:1,2018-10-03T20:30:00Z,30.3085,-88.1395,0.0,5.8,114.0,99.0,'11111222,11111222,11144222' 
DISL,ioos:station:DISL:CATA:1,2018-10-03T20:40:00Z,30.3085,-88.1395,0.0,5.52,113.5,-9999.0,'1111122,1111122,1111122' 